Location: East Arcadia
(34.1056°N, 118.0176°W)
Time: 12:15:41
(UTC+00:00)

DELTA 2 R/B (1) - Pass Details

Date: 04 December 2023
Orbit: 788 x 802 km, 39.6° (Epoch: 21 February)

Event Time Altitude Azimuth Distance (km) Brightness Sun altitude
Rises 02:46:12 0° 216° (SW) 3,282 7.5 -25.1°
Reaches altitude 10° 02:48:54 10° 207° (SSW) 2,353 6.5 -25.6°
Enters shadow 02:52:57 31° 163° (SSE) 1,360 4.7 -26.4°
